Regional Weather Roundup
Issued by NWS Sioux Falls, SD

Home | Current Version | Previous Version | Text Only | Print | Product List | Glossary Off
Versions: 1 2 3 4 5 6 7 8 9 10 11 12 13 14 15 16 17 18 19 20 21 22 23 24 25 26 27 28 29 30 31 32 33 34 35 36 37 38 39 40 41 42 43 44 45 46 47 48 49 50

000
ASUS43 KFSD 270610
RWRFSD

WEATHER ROUNDUP FOR SE SOUTH DAKOTA/SW MINNESOTA/NW IOWA
NATIONAL WEATHER SERVICE SIOUX FALLS SD
1200 AM CST THU NOV 27 2014

NOTE: "FAIR" INDICATES FEW OR NO CLOUDS BELOW 12,000 FEET WITH NO
SIGNIFICANT WEATHER AND OR OBSTRUCTIONS TO VISIBILITY.


SDZ038>040-050-052>070-270700-
SOUTHEAST SOUTH DAKOTA

CITY           SKY/WX    TMP DP  RH WIND       PRES   REMARKS
CHAMBERLAIN    CLOUDY    12   4  71 E5        30.48R WCI   4
6HR MIN TEMP:  12; 6HR MAX TEMP:  17;

HURON          PTCLDY     0  -6  76 N7        30.51R WCI -13
6HR MIN TEMP:   0; 6HR MAX TEMP:  10;

MADISON        FAIR       0  -4  85 N8        30.44R WCI -15
MITCHELL       CLOUDY     9   1  70 N10       30.52R WCI  -5
6HR MIN TEMP:   7; 6HR MAX TEMP:  13;

SIOUX FALLS    CLEAR      3  -5  69 N7        30.46R WCI  -9
6HR MIN TEMP:   3; 6HR MAX TEMP:  15;

WINNER         CLOUDY    19  10  68 E8        30.42R WCI   9
YANKTON        CLOUDY    10   5  79 NW9       30.51R WCI  -2
$$

MNZ071-072-080-081-089-090-097-098-270700-
SOUTHWEST MINNESOTA

CITY           SKY/WX    TMP DP  RH WIND       PRES   REMARKS
FAIRMONT       CLOUDY     7   0  72 NW16G22   30.40R WCI -11
JACKSON        CLEAR      5  -4  66 NW17      30.41R WCI -14
LUVERNE        CLEAR      7  -4  61 NW5       30.46R WCI  -2
MARSHALL       CLEAR      0  -9  65 NW14      30.47R WCI -19
6HR MIN TEMP:  -2; 6HR MAX TEMP:   9;

MONTEVIDEO     CLEAR     -2  -8  78 N9        30.52R WCI -18
PIPESTONE      CLEAR      1  -8  66 N5        30.42S WCI  -8
REDWOOD FALLS  CLEAR      0  -6  76 NW15      30.47R WCI -19
TRACY          CLEAR      0  -6  77 NW14G20   30.47R WCI -19
WINDOM         CLEAR      0  -6  78 NW17      30.43R WCI -21
WORTHINGTON    CLEAR      1  -6  71 N16       30.42R WCI -18
$$

IAZ001>003-012>014-020>022-031-032-NEZ013-014-SDZ071-270700-
NORTHWEST IOWA

CITY           SKY/WX    TMP DP  RH WIND       PRES   REMARKS
CHEROKEE       MOCLDY    10   4  75 NW8       30.46R WCI  -1
DENISON        CLOUDY    14   7  73 N12G17    30.42S WCI   0
ESTHERVILLE    PTCLDY     4  -2  76 NW12      30.42R WCI -12
LE MARS        CLOUDY    12   5  73 N7G13     30.49R WCI   2
ORANGE CITY    PTCLDY    10   0  61 N10       30.44R WCI  -3
SHELDON        CLEAR      5  -4  66 NW8       30.44R WCI  -8
SIOUX CITY     CLOUDY    17  11  77 N14       30.49R WCI   3
6HR MIN TEMP:  17; 6HR MAX TEMP:  22;

SPENCER        CLEAR      4  -3  73 N10       30.44R WCI -11
6HR MIN TEMP:   1; 6HR MAX TEMP:  18; 6HR PCP: TRACE;

STORM LAKE     CLOUDY    10   3  72 NW12      30.43R WCI  -4
$$

ABBREVIATIONS USED IN REMARKS
   TC - TEMPERATURE IN CELSIUS
  WCI - WIND CHILL INDEX
   HX - HEAT INDEX
  VSB - VISIBILITY



USA.gov is the U.S. government's official web portal to all federal, state and local government web resources and services.